Wind_Speed
7 7 7 7 7 7 6 5 4 3 3 3 4 4 5 6 7 8 9 10 10 11 12 12 13 14 14 13 12 11 11 10 9 8 7 6 7 7 9 10 11 13 14
8 8 8 8 7 7 6 5 4 3 3 3 4 4 5 6 7 8 9 9 10 11 12 13 13 14 14 13 12 12 11 10 9 8 7 6 6 6 7 9 10 12 14
9 9 8 8 8 7 5 4 3 3 2 3 3 4 5 5 7 7 8 9 10 11 12 12 13 14 14 13 12 12 11 10 9 8 7 6 5 5 6 7 9 10 13
9 8 8 9 8 7 6 4 3 2 2 3 3 4 5 5 6 7 8 9 10 11 11 12 12 13 13 13 13 13 12 11 10 9 7 6 5 5 5 6 8 10 11
10 9 9 9 8 7 5 4 3 2 2 3 3 4 5 5 6 7 8 9 9 10 11 12 12 13 13 13 13 13 13 12 11 10 8 6 4 4 4 5 7 10 11
9 9 9 9 8 6 5 4 4 3 3 3 3 4 4 5 6 7 8 8 9 10 11 12 12 13 13 13 13 13 14 13 12 10 8 6 5 4 4 5 6 8 10
9 9 9 9 7 6 5 5 4 3 3 3 3 4 4 5 6 7 7 8 9 10 10 11 12 12 13 13 13 13 14 13 12 11 9 7 5 5 4 4 5 7 9
10 10 9 8 7 6 5 5 4 3 3 3 4 4 5 5 6 7 7 8 9 10 10 11 11 12 12 13 13 13 13 14 13 11 9 7 6 5 4 4 5 6 8
10 10 9 8 7 7 6 5 4 4 4 4 4 5 5 6 6 7 7 8 9 10 10 11 12 12 12 12 12 12 13 13 13 12 10 8 7 5 4 4 4 5 7
9 10 9 8 7 7 6 6 5 5 5 5 5 5 5 6 6 7 7 8 9 10 11 11 12 12 12 12 12 12 13 13 12 12 10 9 8 6 5 4 4 5 6
10 10 9 9 8 7 6 6 5 6 6 6 6 6 6 7 7 7 8 8 9 10 11 11 12 12 12 12 12 12 12 13 12 12 11 10 9 7 6 5 5 5 6
10 10 9 8 8 7 7 6 6 6 6 6 6 6 7 7 7 7 8 9 10 10 11 11 12 12 12 12 12 12 12 13 13 12 12 11 10 8 7 7 6 6 7
10 9 9 8 8 7 8 7 7 7 7 7 7 7 7 7 8 8 9 10 10 11 11 12 12 12 12 12 12 12 13 13 13 13 12 12 11 9 9 8 8 8 9
9 9 9 8 8 8 8 8 8 8 8 8 8 8 8 8 9 9 10 11 11 12 13 13 13 13 13 13 13 13 14 14 14 14 14 13 13 12 11 11 11 11 11
9 9 9 8 8 8 8 8 9 8 8 9 9 9 9 10 10 11 12 13 13 14 14 14 14 14 14 15 15 15 15 16 16 16 16 15 15 15 14 14 14 14 14
9 9 9 9 9 9 9 9 9 9 10 10 10 11 11 12 12 13 14 15 15 15 16 16 16 16 16 17 17 17 17 18 18 18 18 18 18 18 18 17 17 17 17
10 10 10 10 10 9 9 10 10 11 12 12 12 12 13 14 14 15 16 16 17 18 18 18 19 19 19 19 19 20 20 21 21 21 21 21 21 21 21 21 21 21 21
11 11 11 11 11 11 11 12 12 13 13 14 14 15 15 16 17 17 18 19 19 20 20 21 21 22 22 22 22 23 23 24 24 24 25 25 25 25 25 25 25 25 25
13 13 13 13 13 13 14 15 15 16 16 16 17 17 18 19 19 20 21 21 22 23 23 24 25 25 25 25 26 26 27 27 28 28 29 29 29 29 30 30 29 28 28
15 15 15 16 16 17 17 18 18 18 19 19 20 20 21 21 22 23 24 25 25 26 26 27 28 28 28 29 30 30 30 31 31 32 32 33 33 34 34 34 33 32 32
17 17 18 18 19 20 20 21 21 21 21 22 22 23 24 25 25 26 27 28 28 29 30 30 31 31 31 32 33 34 34 35 35 36 36 37 37 37 37 37 37 36 36
19 20 20 21 22 22 23 23 23 24 24 24 25 26 27 28 29 30 30 31 32 32 33 34 34 34 35 36 37 37 38 39 39 40 40 40 40 40 40 40 40 40 39
22 22 23 23 24 24 24 25 26 26 27 27 28 29 30 31 32 33 33 34 35 36 36 37 37 38 38 39 40 41 42 43 43 44 44 44 44 44 43 43 43 43 43
24 24 25 25 26 26 27 27 28 29 30 30 31 32 33 33 34 35 36 37 38 39 39 40 40 41 42 43 44 45 45 46 47 47 47 47 47 46 46 45 44 44 44
26 26 27 27 28 29 29 30 31 31 32 33 34 35 35 36 37 38 39 40 41 42 42 43 43 44 45 46 47 48 49 49 50 50 49 49 48 47 46 45 44 44 45
29 29 29 30 31 31 32 33 33 34 35 36 37 37 38 39 40 41 42 43 44 45 46 46 47 48 49 49 51 52 52 52 51 50 49 49 48 47 46 45 45 46 46
Wind_Direction
205 204 201 199 200 201 205 217 236 258 272 295 309 314 324 332 336 341 345 348 351 353 355 356 356 355 355 355 354 350 346 342 336 324 310 292 274 258 248 241 235 228 225
207 202 203 205 201 200 207 218 233 257 279 299 312 319 324 331 335 340 345 347 350 353 354 355 357 358 357 358 357 355 352 347 341 334 323 304 284 264 253 244 237 225 220
206 204 204 200 197 198 204 216 233 258 287 304 310 319 328 332 337 341 344 346 348 351 354 357 359 360 359 360 360 358 356 351 346 339 329 318 296 274 259 248 237 224 218
202 202 203 197 194 194 196 211 226 253 283 299 307 318 330 335 339 342 344 346 349 353 357 359 -0 1 1 1 2 360 358 355 349 343 334 323 307 288 271 251 236 226 218
200 196 198 197 195 194 198 210 224 248 275 294 299 318 330 335 338 341 345 349 353 355 357 360 1 2 1 0 0 1 1 360 354 347 340 330 318 293 272 255 241 230 223
196 192 195 198 198 201 206 217 232 250 264 282 299 319 327 333 338 341 345 349 353 354 356 359 358 358 359 359 0 1 2 1 357 353 348 338 322 307 280 258 244 234 229
194 193 196 201 200 207 212 220 231 246 262 280 297 315 318 325 330 336 339 346 351 352 355 357 355 355 357 358 360 1 2 2 0 359 356 346 334 320 295 264 248 238 231
192 192 195 198 203 209 213 221 232 244 261 279 294 309 314 319 324 328 333 341 348 350 351 353 354 355 356 357 358 360 2 3 3 2 360 355 344 331 309 276 250 238 234
192 192 196 201 208 215 220 225 233 245 262 278 290 299 308 315 319 320 324 335 343 347 348 348 351 353 355 356 357 357 359 2 3 3 1 356 351 344 321 292 265 244 235
194 199 202 207 213 218 224 230 238 249 263 273 286 295 304 311 314 318 323 328 333 338 343 346 346 347 349 351 353 355 357 359 1 3 2 358 351 342 331 311 275 250 240
200 204 206 211 217 223 228 235 242 254 262 274 284 290 298 306 311 314 319 324 328 331 334 338 342 343 343 345 348 350 352 354 355 356 356 354 349 338 330 314 290 264 253
207 209 211 217 223 227 232 237 245 254 262 273 283 293 296 300 306 309 313 317 321 324 326 329 333 337 338 338 341 343 344 346 347 347 347 347 344 334 324 313 296 279 267
211 215 217 224 228 233 237 240 245 255 264 273 284 293 297 301 303 306 309 313 315 317 319 321 324 328 331 331 333 335 336 338 339 340 338 337 336 331 321 313 301 288 277
212 219 224 227 233 239 239 241 249 259 267 275 283 290 296 299 301 304 308 311 313 313 313 314 316 318 322 325 325 326 327 328 330 331 330 327 326 322 315 307 301 293 284
217 222 226 230 234 237 241 249 255 261 269 276 282 288 293 296 298 300 303 306 308 309 309 309 310 311 315 319 320 319 320 320 321 321 321 319 316 314 309 303 298 293 285
224 228 229 232 236 241 250 257 261 267 272 276 280 285 290 292 295 298 302 303 304 305 305 305 305 306 307 311 313 313 314 314 314 314 314 313 311 308 306 301 296 291 284
232 234 236 240 244 247 253 258 263 269 273 277 280 283 287 289 293 296 299 301 302 303 303 303 303 302 302 304 307 307 308 308 308 308 307 306 305 303 301 299 296 291 285
237 240 243 246 248 253 257 262 267 272 274 277 280 283 285 288 291 294 296 298 300 300 300 300 299 298 298 299 301 302 302 303 304 303 303 302 301 300 298 295 293 290 286
243 246 249 252 256 259 263 267 271 274 276 278 280 282 285 287 289 292 294 296 297 297 296 297 297 296 296 297 298 298 299 299 300 300 299 299 298 297 295 293 290 288 285
248 252 255 258 262 265 268 271 274 276 277 279 281 283 285 286 288 290 293 294 295 295 296 296 296 294 294 295 296 296 297 297 298 298 297 297 296 295 293 291 288 286 284
252 256 259 262 265 268 271 274 276 278 279 280 281 283 285 286 288 290 291 293 293 294 295 295 295 294 293 294 295 295 296 296 296 296 295 295 294 293 290 288 285 284 282
256 259 262 265 268 270 272 274 276 278 280 281 282 284 285 286 287 289 290 291 292 293 293 294 294 294 293 294 294 294 295 295 296 295 294 294 292 291 289 286 283 282 281
260 262 264 267 269 271 272 274 276 278 280 282 283 285 286 286 287 288 289 291 292 292 292 292 292 293 293 293 294 294 295 295 295 295 294 293 292 290 288 285 283 280 280
264 266 267 269 271 273 275 276 278 279 281 283 284 285 286 286 287 288 289 291 292 292 292 291 291 292 292 293 294 294 295 295 295 294 293 292 292 291 289 286 282 280 278
268 268 269 271 273 275 276 277 278 280 282 283 284 285 286 287 287 288 289 290 291 291 291 291 291 292 292 293 293 294 295 295 295 294 293 292 291 290 288 285 282 279 277
270 271 272 273 275 276 277 278 279 281 282 283 285 286 287 288 288 289 289 290 291 291 292 291 291 292 293 294 294 295 296 295 294 293 292 291 290 289 288 285 282 279 276
Height
5856 5857 5859 5860 5861 5862 5863 5863 5864 5864 5863 5863 5862 5861 5860 5859 5858 5856 5854 5852 5850 5848 5845 5843 5840 5837 5834 5831 5829 5827 5824 5823 5821 5820 5819 5818 5818 5818 5819 5820 5821 5823 5825
5855 5856 5857 5858 5859 5861 5862 5862 5862 5862 5862 5862 5861 5860 5859 5858 5857 5855 5854 5852 5849 5847 5845 5842 5839 5836 5833 5831 5828 5826 5824 5822 5820 5818 5817 5817 5817 5816 5817 5817 5819 5820 5822
5852 5854 5856 5857 5858 5859 5860 5861 5861 5861 5861 5861 5860 5859 5858 5857 5856 5854 5853 5851 5849 5846 5844 5841 5839 5836 5833 5830 5828 5825 5823 5821 5819 5817 5816 5815 5815 5815 5815 5815 5816 5817 5819
5851 5852 5854 5856 5857 5858 5859 5860 5860 5860 5860 5860 5859 5858 5857 5856 5855 5854 5852 5850 5848 5846 5843 5841 5838 5836 5833 5830 5828 5825 5822 5820 5818 5816 5815 5814 5813 5813 5813 5814 5814 5816 5817
5849 5851 5853 5854 5856 5857 5858 5858 5859 5859 5859 5858 5858 5857 5856 5855 5854 5853 5851 5849 5847 5845 5843 5840 5838 5835 5833 5830 5828 5825 5822 5820 5817 5815 5813 5812 5812 5811 5811 5812 5813 5814 5815
5848 5849 5851 5853 5854 5856 5856 5857 5858 5858 5858 5857 5857 5856 5855 5854 5853 5852 5850 5848 5846 5844 5842 5840 5837 5835 5833 5830 5827 5825 5822 5819 5817 5814 5813 5811 5811 5810 5810 5810 5811 5812 5814
5846 5848 5850 5851 5853 5854 5855 5856 5856 5856 5856 5856 5855 5855 5854 5853 5852 5851 5849 5848 5846 5844 5842 5839 5837 5835 5832 5830 5827 5824 5822 5819 5816 5814 5812 5811 5810 5809 5809 5809 5809 5810 5812
5845 5847 5849 5850 5852 5853 5853 5854 5855 5855 5855 5855 5854 5854 5853 5852 5851 5850 5848 5847 5845 5843 5841 5839 5837 5834 5832 5829 5827 5824 5822 5819 5817 5814 5812 5811 5810 5809 5808 5808 5808 5809 5810
5843 5845 5847 5849 5850 5851 5852 5852 5853 5853 5853 5853 5853 5852 5851 5850 5849 5848 5847 5845 5844 5842 5840 5838 5836 5834 5831 5829 5826 5824 5821 5819 5817 5814 5812 5811 5809 5808 5808 5807 5807 5808 5809
5842 5844 5846 5847 5848 5849 5850 5851 5851 5851 5851 5851 5851 5850 5849 5849 5848 5846 5845 5844 5842 5841 5839 5837 5835 5833 5831 5828 5826 5824 5821 5819 5817 5815 5813 5811 5809 5808 5807 5807 5807 5807 5807
5840 5842 5844 5845 5846 5847 5848 5849 5849 5849 5849 5849 5849 5848 5847 5847 5846 5845 5843 5842 5841 5839 5838 5836 5834 5832 5830 5828 5825 5823 5821 5819 5817 5815 5813 5811 5809 5808 5807 5806 5805 5805 5806
5839 5840 5842 5843 5844 5845 5846 5847 5847 5847 5847 5847 5847 5846 5845 5844 5844 5843 5842 5840 5839 5838 5836 5834 5833 5831 5829 5827 5825 5822 5820 5818 5816 5814 5812 5810 5808 5807 5806 5805 5804 5804 5804
5837 5838 5840 5841 5842 5843 5843 5844 5845 5845 5845 5845 5844 5844 5843 5842 5841 5841 5839 5838 5837 5835 5834 5832 5831 5829 5827 5825 5823 5821 5819 5817 5815 5813 5811 5809 5808 5806 5805 5804 5803 5802 5802
5835 5836 5838 5839 5840 5840 5841 5842 5842 5842 5842 5842 5842 5841 5840 5840 5839 5838 5837 5836 5834 5833 5831 5830 5828 5827 5825 5823 5821 5820 5818 5816 5814 5812 5810 5808 5806 5804 5803 5802 5801 5800 5799
5833 5834 5835 5836 5837 5838 5839 5839 5839 5840 5840 5839 5839 5838 5838 5837 5836 5835 5834 5833 5831 5830 5828 5827 5825 5824 5822 5820 5819 5817 5815 5813 5811 5809 5807 5805 5804 5802 5800 5799 5798 5797 5796
5830 5832 5833 5834 5835 5835 5836 5836 5836 5836 5836 5836 5836 5835 5834 5834 5832 5831 5830 5829 5828 5826 5824 5823 5821 5820 5818 5817 5815 5813 5812 5810 5808 5806 5804 5802 5800 5798 5796 5795 5793 5792 5791
5828 5829 5830 5831 5831 5832 5833 5833 5833 5833 5833 5832 5832 5831 5831 5830 5829 5827 5826 5825 5823 5822 5820 5818 5817 5815 5814 5812 5810 5809 5807 5805 5803 5802 5800 5798 5795 5793 5792 5790 5788 5787 5785
5825 5826 5827 5827 5828 5829 5829 5829 5829 5829 5829 5828 5828 5827 5826 5825 5824 5823 5822 5820 5818 5817 5815 5813 5812 5810 5808 5807 5805 5803 5801 5800 5798 5796 5793 5791 5789 5787 5785 5783 5782 5780 5778
5821 5822 5823 5824 5824 5825 5825 5825 5825 5825 5824 5823 5823 5822 5821 5820 5819 5818 5816 5814 5813 5811 5809 5807 5805 5803 5802 5800 5798 5796 5795 5793 5790 5788 5786 5783 5781 5779 5776 5774 5773 5771 5769
5817 5818 5819 5819 5820 5820 5820 5820 5820 5819 5819 5818 5817 5816 5815 5814 5813 5811 5810 5808 5806 5804 5802 5800 5798 5796 5794 5792 5790 5788 5786 5784 5782 5780 5777 5774 5771 5769 5766 5763 5762 5760 5759
5813 5813 5814 5814 5814 5814 5814 5814 5814 5813 5812 5812 5811 5810 5808 5807 5806 5804 5802 5800 5798 5796 5794 5792 5790 5788 5786 5783 5781 5778 5776 5774 5772 5769 5766 5763 5760 5757 5754 5752 5750 5748 5747
5807 5808 5808 5808 5808 5808 5808 5807 5807 5806 5805 5804 5803 5802 5801 5799 5797 5796 5794 5792 5790 5787 5785 5783 5780 5778 5775 5773 5770 5768 5765 5762 5760 5757 5754 5751 5748 5745 5742 5739 5736 5735 5733
5801 5801 5801 5801 5801 5801 5801 5800 5799 5798 5797 5796 5795 5793 5792 5790 5788 5786 5784 5782 5780 5777 5775 5772 5770 5767 5765 5762 5759 5756 5753 5750 5747 5743 5740 5737 5733 5730 5727 5725 5722 5720 5718
5794 5794 5794 5794 5793 5793 5793 5792 5791 5790 5789 5787 5786 5784 5782 5780 5778 5776 5774 5771 5769 5766 5763 5760 5758 5756 5753 5750 5747 5743 5740 5736 5732 5729 5725 5721 5718 5714 5711 5709 5706 5704 5702
5786 5786 5786 5785 5785 5785 5784 5783 5782 5781 5780 5778 5776 5774 5772 5770 5768 5765 5762 5760 5757 5753 5751 5748 5745 5743 5740 5737 5733 5729 5725 5721 5717 5713 5709 5706 5702 5699 5695 5692 5690 5688 5686
5777 5777 5777 5777 5776 5775 5774 5773 5772 5771 5770 5768 5766 5764 5762 5759 5757 5754 5751 5747 5744 5741 5737 5734 5731 5728 5725 5721 5718 5713 5709 5704 5700 5696 5693 5690 5686 5682 5679 5677 5674 5672 5670